Jordan, MT

6:02 PM MST on February 05, 2016 (GMT -0700)
Pines | | Change Station
CLOSE
Current Station
Personal Weather Station
Location: Jordan, MT
Elevation: 2293 ft
Nearby Weather Stations
Active Advisory: High Wind Warning

Elev 2293 ft 47.83 °N, 106.64 °W | Updated 19 seconds ago

Partly Cloudy
Partly Cloudy
39.0 °F
Feels Like 39 °F
N
0.0
Wind Variable Wind from SW
Gusts 0.0 mph

Today
High -- | Low -- °F
--% Chance of Precip.
Yesterday
High -- | Low -- °F
Precip. -- in
Pressure 30.08 in
Visibility 10.0 miles
Clouds Clear
Windchill 39 °F
Dew Point 24 °F
Humidity 55%
Rainfall 0.00 in
Snow Depth Not available.
7:28 AM 5:14 PM
Waning Crescent, 8% visible
METAR KGGW 060053Z AUTO 21007KT 10SM CLR 02/M03 A2998 RMK AO2 SLP186 T00171033
Pressure 30.08 in
Visibility 10.0 miles
Clouds Clear
Windchill 39 °F
Dew Point 24 °F
Humidity 55%
Rainfall 0.00 in
Snow Depth Not available.
7:28 AM 5:14 PM
Waning Crescent, 8% visible
METAR KGGW 060053Z AUTO 21007KT 10SM CLR 02/M03 A2998 RMK AO2 SLP186 T00171033

10-Day Weather Forecast

Almanac

Astronomy

Feb. 05, 2016 Rise Set
Actual Time
Civil Twilight
Nautical Twilight
Astronomical Twilight
Moon
Length of Visible Light
Length of Day
Tomorrow will be .
, % of the Moon is Illuminated

Today's Extremes

State Highs State Lows

Community

WunderPhotos

Upload Photos

1,890,902 photos uploaded!

WunderBlog® & News

Nearby

Air Quality

  Air Quality AQ Index Pollutant
Not available.

Snow Depth

Station Depth Elevation

Earthquake Activity

City Distance Mag. Time & Date
Minimum magnitude displayed is 2.5.

Coastal Water Temperatures

Place Temperature

Stations

Nearby Weather Stations

Station Location Temp. Windchill Dew Point Humidity Wind Precip. Elev Updated Type
                   

Watches & Warnings

High Wind Warning
Issued: 2:34 PM MST Feb. 5, 2016 – National Weather Service

... High Wind Warning in effect from 5 am to 11 PM MST Saturday...

The National Weather Service in Glasgow has issued a High Wind
Warning... which is in effect from 5 am to 11 PM MST Saturday. The
high wind watch is no longer in effect.

* Winds... west at 30 to 40 mph. Gusts up to 65 mph.

* Timing... winds will begin increasing early Saturday morning
and continue through the day.

* Impacts... the strong winds may make travel difficult
especially for high profile vehicles on north-south oriented
roads.

Precautionary/preparedness actions...

A High Wind Warning means a hazardous high wind event is expected
or occurring. Sustained wind speeds of at least 40 mph or gusts
of 58 mph or more can lead to property damage.